Погода в Тандиле

Аргентина     37°14′08″S   59°13′43″W
темп.,
°C
ветер,
м/с
пор.,
м/с
влажн.,
%
обл.,
%
осадки,
мм/ч
давл.,
гПа
погр.,
м
17 апреля, сб
сб1700:00+16з1187100 0.0 101611
03:00+15сз118945 0.0 101611
06:00+15с0090100 0.0 101611
09:00+17ссв118247 0.0 1018103
12:00+22с2366100 0.0 1018654
15:00+24с336299 0.0 10161102
18:00+21с3477100 0.0 101687
21:00+17ссв23910 0.0 101737
18 апреля, вс
вс1800:00+16ссв2494100 0.0 101866
03:00+15ссв279795 0.0 1018156
06:00+13ссв369547 0.0 1018112
09:00+15ссв368984 0.0 1019204
12:00+22с577022 0.0 1018778
15:00+24с5760100 0.0 10171190
18:00+21ссв497699 0.0 1016307
21:00+17ссв359147 0.0 101882
19 апреля, пн
пн1900:00+16ссв311938 0.0 1018264
03:00+14ссв39965 0.0 1019216
06:00+13св269837 0.0 1019146
09:00+16ссв499330 0.0 1020313
12:00+22с69655 0.0 1019843
15:00+23ссв79555 0.0 10171109
18:00+20ссв611680 0.0 1017586
21:00+16св514811 0.0 1018418
20 апреля, вт
вт2000:00+13св413965 0.0 1020351
03:00+13св4139939 0.0 1020377
06:00+14св4129844 0.0 1020402
09:00+15св512913 0.0 1022438
12:00+20ссв79630 0.0 1021882
15:00+23св79540 0.0 10201167
18:00+20св611690 0.0 1020528
21:00+16всв613900 0.0 1022465
21 апреля, ср
ср2100:00+14всв513968 0.0 1022418
03:00+14всв5149846 0.0 1022473
06:00+14всв5149871 0.0 1021569
09:00+16св6139292 0.0 1022743
12:00+20св91167100 0.1 10211211
15:00+20св81262100 0.1 10181388
18:00+19всв8147098 0.0 10171059
21:00+16всв71584100 0.0 1019742